This demonstration page uses our WeatherBlox Daily Observations layout. Learn more.

Hourly Observations for October 21, 2019

Temp ( °F °C ) Dew Point ( °F °C ) Humidity (%) Winds ( mph kmh ) Pressure ( in mb ) Visibility ( mi km ) Precip ( " mm )
12:15 am 00:15 Partly Cloudy 54 12 52 11 94 94 ESE 3 6 29.91 1013 10 16.09344 N/A
12:16 am 00:16 Partly Cloudy 54 12 52 11 94 94 ESE 5 7 29.91 1013 10 16.09344 N/A
12:35 am 00:35 Clear 54 12 52 11 94 94 SE 6 9 29.91 1013 10 16.09344 N/A
12:55 am 00:55 Clear 54 12 52 11 94 94 SE 6 9 29.91 1013 10 16.09344 N/A
1:15 am 01:15 Clear 54 12 52 11 94 94 SE 5 7 29.91 1013 10 16.09344 N/A
1:36 am 01:36 Clear 55 13 52 11 88 88 SSE 5 7 29.88 1012 10 16.09344 N/A
1:55 am 01:55 Clear 54 12 52 11 94 94 SE 6 9 29.88 1012 10 16.09344 N/A
2:15 am 02:15 Clear 54 12 52 11 94 94 SE 3 6 29.88 1012 10 16.09344 N/A
2:16 am 02:16 Clear 54 12 52 11 94 94 SE 5 7 29.88 1012 10 16.09344 N/A
2:35 am 02:35 Clear 54 12 52 11 94 94 SSE 6 9 29.88 1012 10 16.09344 N/A
2:55 am 02:55 Clear 54 12 54 12 100 100 SE 5 7 29.88 1012 10 16.09344 N/A
3:15 am 03:15 Clear 54 12 54 12 100 100 SE 5 7 29.85 1011 10 16.09344 N/A
3:35 am 03:35 Clear 54 12 54 12 100 100 SE 5 7 29.88 1012 10 16.09344 N/A
3:36 am 03:36 Clear 54 12 54 12 100 100 SE 5 7 29.88 1012 10 16.09344 N/A
3:55 am 03:55 Clear 54 12 54 12 100 100 SE 5 7 29.85 1011 10 16.09344 N/A
4:15 am 04:15 Clear 52 11 52 11 100 100 SE 3 6 29.88 1012 10 16.09344 N/A
4:35 am 04:35 Clear 52 11 52 11 100 100 SE 3 6 29.85 1011 10 16.09344 N/A
4:55 am 04:55 Clear 52 11 52 11 100 100 SE 5 7 29.83 1010 10 16.09344 N/A
5:15 am 05:15 Clear 54 12 54 12 100 100 SE 6 9 29.85 1011 10 16.09344 N/A
5:35 am 05:35 Partly Cloudy 54 12 54 12 100 100 SE 8 13 29.83 1010 10 16.09344 N/A
5:55 am 05:55 Partly Cloudy 54 12 54 12 100 100 SE 6 9 29.83 1010 10 16.09344 N/A
6:15 am 06:15 Partly Cloudy 54 12 54 12 100 100 SE 7 11 29.83 1010 10 16.09344 N/A
6:35 am 06:35 Partly Cloudy 55 13 55 13 100 100 SE 8 13 29.8 1009 10 16.09344 N/A
6:55 am 06:55 Clear 55 13 55 13 100 100 SE 10 17 29.8 1009 10 16.09344 N/A
7:15 am 07:15 Clear 55 13 55 13 100 100 SE 10 17 29.8 1009 10 16.09344 N/A
7:16 am 07:16 Clear 55 13 55 13 100 100 SE 9 15 29.8 1009 10 16.09344 N/A
7:36 am 07:36 Clear 55 13 55 13 100 100 SE 8 13 29.8 1009 10 16.09344 N/A
7:55 am 07:55 Clear 55 13 55 13 100 100 SE 8 13 29.8 1009 10 16.09344 N/A
8:15 am 08:15 Sunny 55 13 55 13 100 100 SE 8 13 29.77 1008 10 16.09344 N/A
8:16 am 08:16 Sunny 55 13 55 13 100 100 SE 8 13 29.77 1008 10 16.09344 N/A
8:35 am 08:35 Sunny 55 13 55 13 100 100 SE 10 17 29.77 1008 10 16.09344 N/A
8:36 am 08:36 Sunny 55 13 55 13 100 100 SE 10 17 29.77 1008 10 16.09344 N/A
8:55 am 08:55 Mostly Cloudy 57 14 57 14 100 100 SE 12 19 29.77 1008 10 16.09344 N/A
8:56 am 08:56 Mostly Cloudy 57 14 57 14 100 100 SE 10 17 29.77 1008 10 16.09344 N/A
9:15 am 09:15 Mostly Cloudy 55 13 55 13 100 100 SE 9 15 29.74 1007 10 16.09344 N/A
9:16 am 09:16 Mostly Cloudy 55 13 55 13 100 100 ESE 10 17 29.74 1007 10 16.09344 N/A
9:35 am 09:35 Mostly Cloudy 57 14 57 14 100 100 SE 10 17 29.74 1007 7 11.265408 N/A
9:55 am 09:55 Cloudy 57 14 57 14 100 100 SSW 9 15 29.8 1009 4 6.437376 N/A
10:15 am 10:15 Cloudy 57 14 57 14 100 100 SE 8 13 29.77 1008 0.75 1.207008 N/A
10:35 am 10:35 Cloudy 57 14 57 14 100 100 SE 9 15 29.77 1008 2 3.218688 N/A
10:36 am 10:36 Cloudy 57 14 57 14 100 100 SE 9 15 29.77 1008 2 3.218688 N/A
10:56 am 10:56 Cloudy 57 14 57 14 100 100 SE 12 19 29.74 1007 5 8.04672 N/A
11:15 am 11:15 Cloudy 57 14 57 14 100 100 SE 10 17 29.74 1007 5 8.04672 N/A
11:35 am 11:35 Cloudy 57 14 57 14 100 100 SSE 12 19 29.74 1007 5 8.04672 N/A
11:55 am 11:55 Cloudy 57 14 57 14 100 100 SSE 15 24 29.71 1006 4 6.437376 N/A
11:56 am 11:56 Cloudy 57 14 57 14 100 100 SSE 15 24 29.71 1006 4 6.437376 N/A
12:15 pm 12:15 Cloudy 57 14 57 14 100 100 SE 13 20 29.71 1006 7 11.265408 N/A
12:35 pm 12:35 Cloudy 57 14 57 14 100 100 SSE 10 17 29.68 1005 10 16.09344 N/A
12:36 pm 12:36 Cloudy 57 14 57 14 100 100 SSE 10 17 29.68 1005 10 16.09344 N/A
12:55 pm 12:55 Cloudy 59 15 59 15 100 100 SSE 16 26 29.68 1005 10 16.09344 N/A
12:56 pm 12:56 Cloudy 59 15 59 15 100 100 SSE 16 26 29.68 1005 10 16.09344 N/A
1:15 pm 13:15 Cloudy 59 15 59 15 100 100 SSE 15 24 29.68 1005 7 11.265408 N/A
1:35 pm 13:35 Cloudy 59 15 59 15 100 100 SSE 12 19 29.65 1004 10 16.09344 N/A
1:36 pm 13:36 Cloudy 59 15 59 15 100 100 S 13 20 29.68 1005 10 16.09344 N/A
1:55 pm 13:55 Cloudy 61 16 61 16 100 100 SSE 14 22 29.65 1004 10 16.09344 N/A
2:15 pm 14:15 Cloudy 61 16 61 16 100 100 S 17 28 29.65 1004 10 16.09344 N/A
2:35 pm 14:35 Cloudy 63 17 63 17 100 100 S 14 22 29.65 1004 10 16.09344 N/A
2:36 pm 14:36 Cloudy 63 17 63 17 100 100 S 14 22 29.65 1004 10 16.09344 N/A
2:55 pm 14:55 Mostly Cloudy 63 17 63 17 100 100 S 13 20 29.59 1002 10 16.09344 N/A
3:15 pm 15:15 Partly Cloudy 63 17 63 17 100 100 S 13 20 29.59 1002 10 16.09344 N/A
3:36 pm 15:36 Mostly Cloudy 64 18 64 18 100 100 SW 12 19 29.62 1003 10 16.09344 N/A
3:55 pm 15:55 Mostly Cloudy 64 18 64 18 100 100 SSW 9 15 29.62 1003 10 16.09344 N/A
4:15 pm 16:15 Cloudy 64 18 64 18 100 100 SSW 10 17 29.62 1003 10 16.09344 N/A
4:35 pm 16:35 Mostly Cloudy 64 18 64 18 100 100 S 12 19 29.59 1002 10 16.09344 N/A
4:36 pm 16:36 Mostly Cloudy 64 18 64 18 100 100 S 10 17 29.59 1002 10 16.09344 N/A
4:55 pm 16:55 Mostly Cloudy 64 18 64 18 100 100 S 10 17 29.59 1002 10 16.09344 N/A
5:15 pm 17:15 Mostly Cloudy 64 18 64 18 100 100 SSE 13 20 29.56 1001 10 16.09344 N/A
5:16 pm 17:16 Mostly Cloudy 64 18 64 18 100 100 S 10 17 29.56 1001 10 16.09344 N/A
5:35 pm 17:35 Partly Cloudy 66 19 64 18 94 94 S 12 19 29.59 1002 10 16.09344 N/A
5:56 pm 17:56 Mostly Cloudy 66 19 63 17 88 88 S 16 26 29.59 1002 10 16.09344 N/A
6:16 pm 18:16 Cloudy 66 19 61 16 83 83 S 15 24 29.59 1002 10 16.09344 N/A
6:35 pm 18:35 Cloudy 64 18 61 16 88 88 SSW 15 24 29.62 1003 10 16.09344 N/A
6:36 pm 18:36 Cloudy 64 18 61 16 88 88 SSW 18 30 29.62 1003 10 16.09344 N/A
6:55 pm 18:55 Cloudy 64 18 61 16 88 88 SSW 15 24 29.62 1003 10 16.09344 N/A
6:56 pm 18:56 Cloudy 64 18 61 16 88 88 SSW 13 20 29.62 1003 10 16.09344 N/A
7:15 pm 19:15 Mostly Cloudy 64 18 61 16 88 88 S 14 22 29.62 1003 10 16.09344 N/A
7:35 pm 19:35 Partly Cloudy 64 18 61 16 88 88 S 13 20 29.62 1003 10 16.09344 N/A
7:55 pm 19:55 Partly Cloudy 64 18 61 16 88 88 S 14 22 29.65 1004 10 16.09344 N/A
7:56 pm 19:56 Mostly Cloudy 64 18 61 16 88 88 SSW 13 20 29.65 1004 10 16.09344 N/A
8:15 pm 20:15 Mostly Cloudy 64 18 61 16 88 88 SSW 13 20 29.65 1004 10 16.09344 N/A
8:16 pm 20:16 Mostly Cloudy 64 18 61 16 88 88 SSW 12 19 29.65 1004 10 16.09344 N/A
8:36 pm 20:36 Partly Cloudy 63 17 61 16 94 94 SSW 10 17 29.68 1005 10 16.09344 N/A
8:55 pm 20:55 Partly Cloudy 63 17 61 16 94 94 SSW 10 17 29.68 1005 10 16.09344 N/A
9:15 pm 21:15 Clear 63 17 61 16 94 94 SSW 13 20 29.68 1005 10 16.09344 N/A
9:16 pm 21:16 Clear 63 17 61 16 94 94 SSW 13 20 29.68 1005 10 16.09344 N/A
9:36 pm 21:36 Partly Cloudy 63 17 61 16 94 94 SW 10 17 29.68 1005 10 16.09344 N/A
9:55 pm 21:55 Mostly Cloudy 63 17 61 16 94 94 SSW 10 17 29.68 1005 10 16.09344 N/A
10:15 pm 22:15 Partly Cloudy 63 17 59 15 88 88 SW 15 24 29.68 1005 10 16.09344 N/A
10:16 pm 22:16 Partly Cloudy 61 16 59 15 94 94 SW 14 22 29.68 1005 10 16.09344 N/A
10:35 pm 22:35 Clear 61 16 59 15 94 94 SW 14 22 29.71 1006 10 16.09344 N/A
10:55 pm 22:55 Clear 61 16 59 15 94 94 SW 10 17 29.71 1006 10 16.09344 N/A
11:16 pm 23:16 Clear 61 16 57 14 88 88 SW 15 24 29.71 1006 10 16.09344 N/A
11:36 pm 23:36 Clear 59 15 57 14 94 94 SW 12 19 29.71 1006 10 16.09344 N/A
11:56 pm 23:56 Partly Cloudy 59 15 57 14 94 94 SW 10 17 29.71 1006 10 16.09344 N/A

Powered by AerisWeather